Devils Lake, ND

4:45 PM CDT on August 24, 2016 (GMT -0500)
Devils Lake Municipal

Weather History for KDVL - September, 2012

Change the Weather History Date:

Saturday, September 1, 2012

  Actual Average Record
Temperature  
Mean Temperature 76 °F -  
Max Temperature 87 °F 72 °F 91 °F (1948)
Min Temperature 64 °F 49 °F 36 °F (1974)
Cooling Degree Days 10    
Growing Degree Days 26 (Base 50)    
Moisture  
Dew Point 54 °F    
Average Humidity 48    
Maximum Humidity 64    
Minimum Humidity 39    
Precipitation  
Precipitation 0.00 in - - ()
Sea Level Pressure  
Sea Level Pressure 29.91 in    
Wind  
Wind Speed 16 mph (SE)    
Max Wind Speed 29 mph    
Max Gust Speed 36 mph    
Visibility 10 miles    
Events      
Averages and records for this station are not official NWS values.
T = Trace of Precipitation, MM = Missing Value Source: NWS Daily Summary

Daily Weather History Graph

Daily Weather History Graph

Search for Another Location

Airport or City:

Trip Planner

Search our weather history database for the weather conditions in past years. The results will help you decide how hot, cold, wet, or windy it might be!

Date:

Astronomy

Sep. 01, 2012 Rise Set
Actual Time 6:54 AM CDT 8:15 PM CDT
Civil Twilight 6:21 AM CDT 8:47 PM CDT
Nautical Twilight 5:42 AM CDT 9:26 PM CDT
Astronomical Twilight 5:00 AM CDT 10:08 PM CDT
Moon 8:20 PM CDT (9/1) 8:13 AM CDT (9/1)
Length of Visible Light 14h 25m
Length of Day
13h 21m
Full, 99% of the Moon is Illuminated
Sep 1
Full
Sep 8
Last Quarter
Sep 15
New
Sep 22
First Quarter
Sep 29
Full

Hourly Weather History & Observations

Time (CDT) Temp. Heat Index Dew Point Humidity Pressure Visibility Wind Dir Wind Speed Gust Speed Precip Events Conditions
12:15 AM 66.2 °F - 48.2 °F 52% 30.08 in 10.0 mi ESE 9.2 mph - N/A   Clear
12:35 AM 66.2 °F - 48.2 °F 52% 30.08 in 10.0 mi ESE 9.2 mph - N/A   Clear
12:55 AM 66.2 °F - 48.2 °F 52% 30.08 in 10.0 mi ESE 9.2 mph - N/A   Clear
1:15 AM 69.8 °F - 48.2 °F 46% 30.07 in 10.0 mi SE 13.8 mph 18.4 mph N/A   Partly Cloudy
1:35 AM 69.8 °F - 48.2 °F 46% 30.08 in 10.0 mi SE 13.8 mph - N/A   Scattered Clouds
1:55 AM 69.8 °F - 48.2 °F 46% 30.08 in 10.0 mi SE 12.7 mph - N/A   Partly Cloudy
2:15 AM 69.8 °F - 48.2 °F 46% 30.08 in 10.0 mi SSE 13.8 mph - N/A   Clear
2:35 AM 68.0 °F - 48.2 °F 49% 30.09 in 10.0 mi SSE 12.7 mph - N/A   Clear
2:55 AM 68.0 °F - 48.2 °F 49% 30.08 in 10.0 mi SSE 13.8 mph - N/A   Clear
3:15 AM 68.0 °F - 48.2 °F 49% 30.09 in 10.0 mi SE 10.4 mph - N/A   Clear
3:35 AM 68.0 °F - 48.2 °F 49% 30.09 in 10.0 mi SE 11.5 mph - N/A   Clear
3:55 AM 68.0 °F - 48.2 °F 49% 30.11 in 10.0 mi SSE 10.4 mph - N/A   Mostly Cloudy
4:15 AM 64.4 °F - 51.8 °F 64% 30.09 in 10.0 mi SSE 11.5 mph - N/A   Overcast
4:35 AM 64.4 °F - 51.8 °F 64% 30.09 in 10.0 mi SSE 10.4 mph - N/A   Overcast
4:55 AM 66.2 °F - 51.8 °F 60% 30.07 in 10.0 mi SE 12.7 mph 19.6 mph N/A   Mostly Cloudy
5:15 AM 66.2 °F - 51.8 °F 60% 30.05 in 10.0 mi ESE 12.7 mph 21.9 mph N/A   Partly Cloudy
5:35 AM 66.2 °F - 50.0 °F 56% 30.05 in 10.0 mi SE 13.8 mph - N/A   Clear
5:55 AM 68.0 °F - 51.8 °F 56% 30.06 in 10.0 mi SE 12.7 mph 19.6 mph N/A   Clear
6:15 AM 68.0 °F - 50.0 °F 52% 30.04 in 10.0 mi SE 15.0 mph 24.2 mph N/A   Clear
6:35 AM 68.0 °F - 50.0 °F 52% 30.05 in 10.0 mi SE 15.0 mph - N/A   Clear
6:55 AM 68.0 °F - 50.0 °F 52% 30.04 in 10.0 mi SE 13.8 mph - N/A   Clear
7:15 AM 66.2 °F - 50.0 °F 56% 30.03 in 10.0 mi SE 16.1 mph 24.2 mph N/A   Clear
7:35 AM 66.2 °F - 50.0 °F 56% 30.03 in 10.0 mi SE 19.6 mph 24.2 mph N/A   Clear
7:55 AM 68.0 °F - 50.0 °F 52% 30.02 in 10.0 mi SE 24.2 mph 28.8 mph N/A   Clear
8:15 AM 68.0 °F - 50.0 °F 52% 30.01 in 10.0 mi SE 23.0 mph 28.8 mph N/A   Clear
8:35 AM 68.0 °F - 48.2 °F 49% 30.00 in 10.0 mi SE 21.9 mph 28.8 mph N/A   Clear
8:55 AM 68.0 °F - 48.2 °F 49% 30.00 in 10.0 mi SE 20.7 mph 28.8 mph N/A   Clear
9:15 AM 68.0 °F - 48.2 °F 49% 30.00 in 10.0 mi SE 18.4 mph 25.3 mph N/A   Clear
9:35 AM 68.0 °F - 48.2 °F 49% 29.99 in 10.0 mi SE 19.6 mph 25.3 mph N/A   Clear
9:55 AM 69.8 °F - 48.2 °F 46% 29.98 in 10.0 mi SE 18.4 mph 27.6 mph N/A   Clear
10:15 AM 69.8 °F - 48.2 °F 46% 29.97 in 10.0 mi SE 18.4 mph 27.6 mph N/A   Clear
10:35 AM 71.6 °F - 48.2 °F 43% 29.96 in 10.0 mi SE 23.0 mph 28.8 mph N/A   Clear
10:55 AM 71.6 °F - 48.2 °F 43% 29.95 in 10.0 mi SE 23.0 mph 29.9 mph N/A   Clear
11:15 AM 71.6 °F - 48.2 °F 43% 29.94 in 10.0 mi SE 20.7 mph 31.1 mph N/A   Clear
11:35 AM 73.4 °F - 48.2 °F 41% 29.93 in 10.0 mi SE 23.0 mph 27.6 mph N/A   Clear
11:55 AM 73.4 °F - 50.0 °F 44% 29.93 in 10.0 mi SE 17.3 mph 27.6 mph N/A   Clear
12:15 PM 75.2 °F - 50.0 °F 41% 29.92 in 10.0 mi SE 23.0 mph 28.8 mph N/A   Clear
12:35 PM 77.0 °F - 51.8 °F 41% 29.91 in 10.0 mi SSE 21.9 mph 28.8 mph N/A   Clear
12:55 PM 75.2 °F - 51.8 °F 44% 29.89 in 10.0 mi SSE 23.0 mph 29.9 mph N/A   Clear
1:15 PM 77.0 °F - 51.8 °F 41% 29.89 in 10.0 mi SSE 21.9 mph 32.2 mph N/A   Clear
1:35 PM 80.6 °F 80.3 °F 53.6 °F 39% 29.87 in 10.0 mi SSE 26.5 mph 33.4 mph N/A   Clear
1:55 PM 80.6 °F 80.3 °F 53.6 °F 39% 29.86 in 10.0 mi SSE 23.0 mph 34.5 mph N/A   Clear
2:15 PM 82.4 °F 81.7 °F 55.4 °F 39% 29.85 in 10.0 mi SSE 24.2 mph 32.2 mph N/A   Clear
2:35 PM 82.4 °F 81.7 °F 55.4 °F 39% 29.84 in 10.0 mi SSE 25.3 mph 33.4 mph N/A   Clear
2:55 PM 82.4 °F 82.0 °F 57.2 °F 42% 29.84 in 10.0 mi SSE 20.7 mph 29.9 mph N/A   Clear
3:15 PM 84.2 °F 83.5 °F 57.2 °F 40% 29.82 in 10.0 mi SSE 25.3 mph 34.5 mph N/A   Clear
3:35 PM 84.2 °F 83.5 °F 57.2 °F 40% 29.81 in 10.0 mi SSE 24.2 mph 34.5 mph N/A   Clear
3:55 PM 84.2 °F 83.8 °F 59.0 °F 42% 29.80 in 10.0 mi SSE 23.0 mph 29.9 mph N/A   Clear
4:15 PM 86.0 °F 85.4 °F 59.0 °F 40% 29.79 in 10.0 mi SSE 20.7 mph 29.9 mph N/A   Clear
4:35 PM 84.2 °F 83.8 °F 59.0 °F 42% 29.78 in 10.0 mi SSE 23.0 mph 31.1 mph N/A   Clear
4:55 PM 87.8 °F 87.6 °F 60.8 °F 40% 29.77 in 10.0 mi SSE 23.0 mph 33.4 mph N/A   Clear
5:15 PM 86.0 °F 86.1 °F 60.8 °F 43% 29.77 in 10.0 mi SSE 28.8 mph 33.4 mph N/A   Clear
5:35 PM 84.2 °F 84.4 °F 60.8 °F 45% 29.76 in 10.0 mi SSE 21.9 mph 32.2 mph N/A   Clear
5:55 PM 82.4 °F 82.9 °F 60.8 °F 48% 29.76 in 10.0 mi SSE 23.0 mph 29.9 mph N/A   Clear
6:15 PM 82.4 °F 82.9 °F 60.8 °F 48% 29.75 in 10.0 mi SSE 23.0 mph 32.2 mph N/A   Clear
6:35 PM 84.2 °F 85.0 °F 62.6 °F 48% 29.75 in 10.0 mi SSE 18.4 mph - N/A   Clear
6:55 PM 82.4 °F 82.9 °F 60.8 °F 48% 29.74 in 10.0 mi SSE 23.0 mph 27.6 mph N/A   Clear
7:15 PM 82.4 °F 82.9 °F 60.8 °F 48% 29.74 in 10.0 mi SSE 21.9 mph 29.9 mph N/A   Clear
7:35 PM 80.6 °F 81.5 °F 60.8 °F 51% 29.74 in 10.0 mi SSE 20.7 mph 28.8 mph N/A   Clear
7:55 PM 80.6 °F 81.5 °F 60.8 °F 51% 29.73 in 10.0 mi SSE 21.9 mph 29.9 mph N/A   Clear
8:15 PM 80.6 °F 81.1 °F 59.0 °F 48% 29.73 in 10.0 mi SSE 23.0 mph 27.6 mph N/A   Clear
8:35 PM 78.8 °F - 59.0 °F 51% 29.73 in 10.0 mi SSE 20.7 mph 29.9 mph N/A   Clear
8:55 PM 78.8 °F - 59.0 °F 51% 29.73 in 10.0 mi SSE 24.2 mph 29.9 mph N/A   Clear
9:15 PM 78.8 °F - 59.0 °F 51% 29.73 in 10.0 mi SSE 20.7 mph 29.9 mph N/A   Clear
9:35 PM 78.8 °F - 59.0 °F 51% 29.73 in 10.0 mi SSE 24.2 mph 31.1 mph N/A   Clear
9:55 PM 78.8 °F - 59.0 °F 51% 29.73 in 10.0 mi SSE 25.3 mph 35.7 mph N/A   Clear
10:15 PM 78.8 °F - 59.0 °F 51% 29.72 in 10.0 mi SSE 23.0 mph 31.1 mph N/A   Clear
10:35 PM 78.8 °F - 59.0 °F 51% 29.73 in 10.0 mi SSE 24.2 mph 33.4 mph N/A   Clear
10:55 PM 77.0 °F - 59.0 °F 54% 29.72 in 10.0 mi SSE 20.7 mph 31.1 mph N/A   Clear
11:15 PM 77.0 °F - 59.0 °F 54% 29.72 in 10.0 mi SSE 26.5 mph - N/A   Clear
11:35 PM 77.0 °F - 59.0 °F 54% 29.72 in 10.0 mi SSE 25.3 mph 29.9 mph N/A   Clear
11:55 PM 75.2 °F - 60.8 °F 61% 29.72 in 10.0 mi SSE 23.0 mph 28.8 mph N/A   Clear